Wind_Speed
6 6 6 8 8 6 6 7 7 6 6 4 3 2 2 1 0 1 2 1 1 4 6 5 4 3 1 1 1 1 5 12 15 12 14 5 9 6 6 13 8 10 11 7 6
8 10 10 9 8 10 9 9 8 7 6 4 2 1 1 1 3 4 2 1 2 4 5 4 3 2 1 1 1 4 5 12 7 9 10 10 12 10 7 13 15 16 16 17 13
14 16 15 14 13 12 11 11 9 8 7 5 3 3 3 3 6 4 2 1 3 4 4 3 4 2 2 2 2 2 6 5 5 8 9 10 10 8 10 14 18 19 21 17 18
16 16 15 14 13 12 10 10 9 8 7 5 5 4 4 4 2 2 4 4 3 3 2 2 2 2 1 2 1 5 7 8 7 5 6 12 11 14 18 23 12 13 17 15 19
14 14 13 12 12 11 10 9 8 7 6 5 5 5 5 3 3 3 2 4 4 2 0 1 2 2 4 2 3 8 8 8 11 13 15 15 21 21 21 20 20 18 22 16 20
10 10 10 10 10 9 9 9 7 6 4 4 3 3 4 3 3 2 1 3 2 2 0 1 1 2 3 4 5 3 11 17 15 18 14 14 23 18 12 11 18 21 24 22 23
8 8 7 6 6 6 6 6 5 4 3 2 3 4 3 2 3 2 2 4 3 1 0 1 2 2 1 3 4 7 11 13 14 11 10 7 18 17 20 20 26 25 25 25 26
6 6 6 5 5 4 4 4 3 3 2 1 2 4 2 1 1 4 3 3 3 2 2 2 2 2 3 4 5 7 7 8 4 3 2 6 21 16 7 8 13 16 18 22 26
5 4 4 4 4 4 3 3 3 2 1 1 2 4 4 2 3 1 2 1 1 0 1 3 2 2 2 5 7 3 11 12 14 3 4 10 17 12 6 10 21 25 27 25 24
3 3 3 4 4 4 3 3 3 2 0 1 1 2 3 2 3 2 2 3 2 2 2 2 2 4 4 5 9 11 12 14 14 4 7 18 25 27 34 29 30 32 31 32 33
4 3 3 3 3 3 4 5 3 2 2 2 2 3 3 2 1 1 2 1 1 2 3 1 5 8 10 8 11 12 13 18 20 21 22 21 23 24 32 32 30 33 33 33 35
4 4 3 3 3 5 5 4 4 3 4 7 3 2 5 5 2 1 2 2 1 3 2 5 8 7 2 4 8 11 15 18 17 13 14 19 29 28 27 30 31 26 26 28 27
3 4 4 5 6 7 6 5 4 4 2 4 5 4 3 3 0 2 1 0 3 3 5 8 3 1 4 6 8 11 13 16 19 20 16 18 23 10 9 9 12 13 18 23 22
3 3 4 7 4 5 4 3 3 3 3 4 4 5 5 4 2 4 1 1 2 3 3 7 2 4 5 10 9 13 5 11 14 11 10 12 16 16 6 2 3 10 16 20 21
6 5 4 5 5 3 1 2 2 2 3 4 3 3 6 3 3 4 2 1 5 4 3 3 7 8 11 8 3 11 7 11 14 16 16 12 8 3 11 9 11 20 20 20 21
7 7 5 5 5 3 2 2 2 3 2 2 3 6 3 7 3 6 2 2 3 5 6 14 10 6 6 8 7 12 10 14 9 9 7 8 14 12 7 3 15 16 21 23 26
7 7 6 5 4 1 1 2 3 2 0 3 3 6 3 6 5 8 5 9 6 8 3 11 4 0 6 3 1 10 11 7 5 5 9 3 9 18 20 12 15 17 25 36 38
9 6 5 3 2 0 1 3 4 2 3 2 4 3 2 9 3 6 2 3 11 8 9 6 1 4 5 10 7 10 5 6 9 11 18 18 14 10 12 10 16 21 24 32 40
8 6 7 4 2 1 2 1 4 2 2 5 2 0 2 1 7 6 6 4 8 14 7 7 3 10 14 8 4 4 6 10 14 21 18 15 21 23 17 13 35 38 40 46 41
7 6 11 4 2 3 1 5 3 5 5 2 3 5 3 7 6 8 3 6 4 10 9 3 10 5 5 11 7 8 11 9 7 8 13 14 23 21 20 28 29 35 48 50 46
1 2 12 4 5 6 3 5 5 6 8 6 4 3 4 5 5 5 5 4 7 8 5 8 5 5 13 6 15 14 7 5 6 9 12 18 14 19 29 32 32 37 41 42 43
2 2 11 4 3 5 4 4 2 6 10 6 5 6 4 5 3 3 2 3 7 8 5 5 6 12 20 16 5 3 8 9 9 19 18 19 26 26 26 33 36 37 34 38 39
4 3 16 5 3 4 5 5 8 7 8 5 4 7 4 2 4 3 1 4 6 8 6 7 2 8 3 6 9 4 17 16 18 14 22 19 18 22 35 35 35 37 38 33 35
4 2 9 15 8 6 6 4 4 7 6 7 4 3 2 2 2 3 4 1 9 15 16 9 9 13 12 17 17 23 21 21 19 14 22 19 27 25 27 26 32 33 33 34 36
6 5 3 3 7 8 4 2 5 2 3 4 3 5 3 3 6 4 4 7 15 7 5 5 8 13 17 22 23 25 22 24 23 23 21 25 26 24 24 23 31 29 36 38 36
5 4 6 5 3 5 2 2 3 3 1 2 4 2 4 5 6 8 11 9 10 4 3 8 10 13 19 23 24 23 22 25 24 21 25 24 25 22 29 28 30 32 32 37 35
10 9 5 2 2 2 2 3 3 1 3 3 2 5 8 8 7 13 17 20 20 16 16 13 7 8 16 16 17 14 16 13 16 21 21 19 22 23 18 27 35 34 34 31 30
Wind_Direction
121 128 156 189 203 183 156 145 134 138 140 142 161 200 223 264 110 70 71 200 324 336 338 331 321 296 224 100 149 149 251 259 263 259 271 231 215 220 229 232 215 223 242 231 193
95 102 110 122 127 125 126 120 117 122 114 116 121 85 46 53 82 72 156 64 7 335 339 354 349 356 130 111 92 235 252 271 306 285 281 275 253 267 235 233 235 240 240 241 220
106 107 108 110 113 117 117 117 116 115 107 98 75 51 53 90 103 25 86 13 1 346 330 351 9 4 208 170 154 195 253 337 284 282 281 278 269 254 247 254 249 249 248 228 210
109 108 110 112 114 113 115 113 114 109 102 89 75 61 73 97 167 90 72 36 0 347 336 1 19 306 281 224 172 261 256 270 286 302 282 270 276 259 254 254 275 262 258 221 219
107 110 112 115 116 116 118 116 117 113 108 99 84 76 97 97 108 127 70 31 25 14 253 149 197 202 255 262 269 243 268 276 270 280 272 264 259 262 264 261 263 259 260 241 234
102 109 115 122 125 129 132 133 134 133 128 113 86 73 101 155 158 145 59 29 23 41 48 85 204 243 260 256 255 304 284 282 280 271 261 255 265 262 261 262 263 257 256 252 244
89 93 100 107 117 127 138 141 146 146 138 103 51 35 84 127 155 140 71 33 28 45 79 188 220 258 278 269 307 291 293 289 265 268 257 264 266 248 277 271 268 269 269 264 255
95 100 101 105 113 119 130 137 150 161 164 90 30 29 70 108 210 235 260 330 337 348 223 236 243 255 253 296 268 272 269 293 122 212 233 209 279 289 293 259 273 285 278 270 263
88 94 107 121 129 133 142 151 168 186 209 323 7 64 113 62 68 179 218 243 357 1 222 245 253 235 212 259 269 197 284 286 301 214 269 222 285 282 250 275 283 278 273 271 266
85 113 128 136 131 130 132 141 145 142 173 357 24 132 116 151 120 102 170 176 173 182 231 229 218 239 220 227 280 303 286 286 279 283 252 283 274 283 283 277 272 270 269 265 262
77 104 122 130 130 130 139 125 101 74 68 53 80 73 101 121 107 95 153 177 193 228 268 330 263 262 307 263 290 288 282 281 282 290 294 277 279 281 284 279 267 265 267 269 268
65 70 80 96 119 123 122 122 106 113 95 38 32 307 270 253 303 279 244 236 234 286 261 239 266 342 278 258 255 266 277 283 288 290 295 293 289 288 275 273 274 273 275 277 287
78 72 103 127 111 118 112 105 92 72 116 53 62 54 21 48 308 17 181 262 295 270 265 269 344 69 292 278 262 265 269 285 293 310 283 302 287 291 296 280 285 277 282 293 298
162 107 111 139 119 130 87 75 80 80 204 38 28 26 1 21 88 356 244 284 230 306 294 276 11 278 279 278 276 289 321 288 296 308 299 15 298 316 327 317 306 329 358 17 8
182 163 133 157 146 132 115 76 56 127 225 33 39 0 345 19 329 19 337 260 283 293 258 320 298 298 289 298 254 291 342 307 292 282 294 274 249 212 310 354 74 50 40 29 19
171 170 157 141 147 129 65 89 118 220 158 114 6 4 3 31 34 342 29 357 298 277 247 273 288 286 294 314 287 310 300 287 269 267 259 279 220 300 36 90 6 18 19 12 6
124 145 161 171 177 168 50 121 212 260 72 40 352 346 352 9 29 9 51 51 16 324 310 303 298 165 358 312 15 332 323 298 245 218 267 58 282 255 308 30 40 23 13 4 353
95 107 122 132 149 222 24 229 230 64 33 7 335 335 71 12 50 5 3 18 38 351 304 341 178 40 14 354 311 305 308 282 288 298 299 299 261 261 325 325 31 353 345 345 341
106 102 81 86 100 155 211 73 43 58 357 332 284 184 119 83 348 342 59 51 36 24 357 331 250 328 343 349 302 19 284 334 286 276 272 259 270 275 298 360 342 333 331 334 335
116 81 30 44 67 97 82 85 87 38 342 303 356 10 350 2 351 5 34 22 16 24 352 34 293 286 29 328 200 11 336 301 269 282 275 281 308 297 337 333 331 334 328 328 330
110 109 4 56 91 59 75 76 103 56 22 7 22 19 45 11 347 334 20 49 11 359 350 331 249 248 329 287 306 310 302 295 313 279 287 296 277 343 319 318 321 325 328 324 324
109 92 8 80 59 47 68 35 56 15 26 46 62 49 37 12 323 297 313 51 33 357 0 12 301 289 293 298 314 180 137 314 289 292 281 283 277 291 306 309 311 316 328 319 316
87 63 26 111 89 87 100 83 59 33 34 35 62 46 26 30 314 289 334 159 15 351 9 1 287 311 278 125 171 299 319 303 287 274 269 275 284 303 300 302 304 317 322 317 317
91 98 36 56 62 94 125 88 113 40 63 68 89 79 25 333 297 292 272 303 311 303 302 288 252 246 266 287 294 292 291 286 279 273 278 278 293 300 301 304 311 318 317 314 311
64 66 57 54 56 88 102 93 118 114 79 60 100 90 60 285 293 255 249 280 300 296 301 303 273 280 281 288 286 283 289 280 277 277 277 289 291 295 306 308 311 311 313 314 311
84 120 81 80 71 113 39 97 134 141 233 170 158 173 244 252 256 289 297 287 270 276 274 297 280 292 287 283 276 281 280 282 280 276 273 288 291 297 318 310 308 307 315 312 312
81 100 106 80 104 162 76 150 140 185 193 192 156 306 274 277 265 274 272 267 267 276 285 284 270 276 277 288 287 275 267 296 290 290 289 290 300 315 314 312 305 311 312 308 315
Height
1527 1527 1528 1530 1532 1533 1535 1536 1538 1540 1541 1542 1543 1544 1545 1545 1546 1547 1548 1549 1549 1549 1549 1549 1549 1549 1549 1550 1551 1551 1549 1545 1542 1544 1539 1541 1541 1541 1540 1541 1542 1541 1541 1541 1542
1528 1528 1529 1531 1533 1534 1536 1538 1539 1541 1542 1543 1544 1545 1545 1545 1546 1548 1549 1548 1548 1549 1550 1550 1550 1550 1550 1550 1551 1551 1548 1540 1540 1541 1540 1539 1540 1538 1541 1538 1539 1539 1538 1537 1539
1529 1529 1530 1532 1534 1535 1537 1538 1540 1542 1543 1544 1545 1545 1545 1546 1548 1549 1548 1548 1548 1549 1549 1549 1550 1551 1551 1550 1550 1550 1545 1545 1543 1543 1543 1541 1540 1540 1537 1533 1534 1533 1534 1535 1535
1530 1531 1532 1534 1535 1537 1538 1539 1541 1542 1543 1545 1545 1545 1545 1547 1549 1549 1549 1549 1548 1548 1549 1549 1550 1552 1550 1548 1550 1549 1546 1546 1544 1544 1542 1540 1538 1535 1532 1529 1531 1530 1531 1531 1531
1532 1533 1534 1535 1537 1538 1540 1541 1542 1543 1544 1545 1545 1545 1545 1548 1550 1549 1549 1549 1549 1549 1549 1549 1550 1550 1548 1548 1548 1546 1543 1544 1542 1542 1539 1538 1533 1530 1525 1527 1527 1527 1525 1526 1526
1535 1536 1536 1537 1537 1538 1540 1541 1542 1543 1544 1545 1544 1544 1546 1548 1549 1548 1549 1549 1549 1549 1550 1550 1551 1550 1549 1547 1547 1545 1544 1540 1538 1536 1535 1532 1527 1528 1521 1523 1522 1522 1522 1522 1522
1537 1537 1538 1538 1539 1540 1541 1542 1543 1544 1545 1545 1545 1545 1546 1549 1548 1549 1549 1550 1550 1550 1550 1550 1550 1551 1550 1548 1548 1545 1542 1535 1530 1532 1530 1529 1522 1519 1519 1520 1518 1518 1517 1517 1516
1538 1538 1539 1539 1540 1540 1541 1542 1543 1544 1544 1545 1545 1545 1548 1548 1548 1549 1549 1550 1549 1549 1550 1550 1550 1551 1549 1549 1545 1542 1538 1534 1525 1529 1527 1529 1513 1511 1515 1515 1513 1512 1511 1510 1510
1539 1539 1539 1539 1540 1540 1541 1542 1543 1544 1544 1545 1546 1547 1549 1548 1549 1549 1550 1550 1550 1550 1550 1549 1550 1549 1549 1545 1540 1540 1532 1528 1526 1525 1526 1526 1511 1507 1513 1511 1510 1506 1503 1502 1501
1539 1539 1539 1540 1540 1540 1541 1542 1543 1544 1545 1545 1546 1549 1549 1550 1549 1549 1549 1550 1550 1550 1550 1550 1548 1545 1545 1542 1540 1533 1532 1527 1529 1520 1525 1522 1513 1505 1504 1504 1501 1498 1495 1492 1490
1540 1540 1539 1539 1539 1540 1541 1543 1547 1548 1545 1547 1548 1548 1549 1550 1549 1550 1549 1550 1550 1550 1546 1549 1545 1539 1534 1538 1537 1539 1539 1534 1524 1519 1521 1514 1506 1499 1495 1492 1490 1488 1487 1484 1482
1540 1540 1540 1540 1540 1541 1542 1543 1543 1546 1547 1547 1547 1548 1549 1549 1550 1550 1550 1551 1550 1547 1549 1546 1540 1540 1543 1542 1543 1540 1536 1529 1519 1516 1517 1505 1493 1490 1484 1480 1480 1482 1482 1480 1480
1540 1540 1539 1540 1541 1542 1542 1543 1543 1543 1546 1549 1549 1549 1550 1550 1550 1550 1551 1550 1549 1548 1546 1544 1539 1545 1542 1540 1541 1534 1534 1525 1523 1515 1511 1500 1479 1467 1469 1475 1475 1478 1479 1479 1479
1539 1539 1540 1540 1544 1542 1543 1543 1542 1543 1539 1551 1551 1551 1551 1550 1550 1550 1549 1552 1549 1546 1546 1542 1542 1542 1541 1538 1535 1533 1526 1528 1527 1525 1516 1510 1487 1471 1457 1466 1471 1474 1474 1477 1480
1538 1539 1540 1541 1542 1543 1544 1542 1542 1544 1543 1554 1552 1553 1550 1551 1552 1550 1549 1550 1547 1545 1549 1536 1538 1538 1538 1534 1535 1530 1531 1528 1525 1521 1514 1507 1515 1462 1454 1463 1471 1476 1483 1485 1486
1537 1539 1540 1541 1542 1542 1542 1542 1543 1543 1546 1553 1554 1553 1551 1552 1552 1551 1551 1550 1549 1546 1545 1541 1541 1541 1536 1536 1536 1533 1528 1521 1521 1520 1517 1489 1498 1464 1467 1474 1473 1484 1486 1486 1485
1538 1539 1540 1541 1542 1542 1542 1543 1541 1540 1556 1557 1556 1556 1555 1554 1552 1553 1553 1554 1553 1549 1536 1538 1536 1540 1540 1534 1533 1530 1525 1520 1509 1513 1499 1493 1496 1469 1465 1477 1488 1491 1489 1484 1483
1541 1541 1541 1541 1541 1541 1542 1543 1542 1560 1559 1561 1559 1557 1555 1558 1556 1555 1552 1553 1561 1558 1551 1547 1536 1540 1545 1547 1543 1536 1534 1531 1528 1505 1498 1496 1488 1469 1466 1475 1487 1493 1493 1493 1491
1542 1543 1542 1542 1542 1542 1544 1541 1554 1560 1564 1562 1558 1555 1557 1559 1559 1553 1560 1563 1570 1567 1562 1554 1545 1541 1546 1546 1544 1534 1537 1541 1535 1518 1511 1487 1473 1462 1466 1474 1486 1488 1487 1489 1488
1544 1544 1543 1542 1541 1542 1543 1559 1563 1567 1568 1565 1559 1561 1559 1563 1559 1557 1558 1573 1572 1573 1570 1563 1559 1543 1547 1546 1543 1544 1546 1546 1536 1530 1505 1475 1484 1479 1486 1493 1491 1487 1485 1479 1479
1544 1545 1545 1543 1543 1545 1548 1561 1567 1571 1570 1567 1565 1565 1569 1570 1568 1565 1565 1579 1577 1575 1572 1569 1562 1547 1549 1547 1545 1550 1547 1549 1548 1537 1527 1515 1491 1487 1496 1494 1491 1492 1490 1487 1480
1544 1545 1545 1544 1547 1554 1558 1568 1571 1572 1572 1571 1572 1573 1573 1574 1571 1570 1569 1575 1580 1578 1574 1574 1568 1557 1550 1545 1548 1550 1557 1554 1555 1547 1539 1535 1497 1511 1502 1500 1495 1492 1492 1488 1480
1545 1547 1546 1543 1547 1558 1569 1572 1575 1574 1576 1575 1577 1579 1579 1577 1574 1573 1574 1579 1579 1578 1576 1576 1565 1560 1536 1549 1548 1544 1553 1552 1551 1549 1540 1530 1510 1509 1504 1497 1493 1490 1488 1483 1476
1546 1548 1551 1551 1560 1561 1564 1571 1575 1578 1579 1580 1582 1582 1580 1579 1579 1574 1573 1575 1577 1576 1576 1575 1566 1561 1555 1550 1552 1551 1552 1547 1543 1541 1525 1519 1506 1502 1497 1490 1489 1488 1485 1479 1472
1548 1559 1561 1561 1566 1567 1568 1572 1573 1576 1580 1580 1583 1582 1582 1577 1577 1574 1575 1574 1573 1573 1573 1571 1563 1559 1555 1553 1551 1545 1544 1537 1532 1525 1519 1506 1504 1495 1491 1489 1486 1485 1480 1473 1466
1554 1560 1564 1569 1571 1569 1570 1573 1573 1578 1579 1578 1577 1582 1583 1582 1578 1575 1575 1575 1572 1571 1572 1572 1569 1562 1558 1553 1546 1538 1533 1526 1522 1518 1507 1500 1495 1491 1490 1490 1485 1480 1476 1469 1460
1556 1559 1561 1571 1572 1569 1572 1574 1576 1578 1578 1578 1579 1580 1578 1577 1578 1576 1575 1574 1572 1572 1571 1570 1564 1563 1550 1543 1537 1531 1515 1511 1510 1508 1501 1497 1491 1492 1491 1487 1477 1473 1470 1463 1456